Regional Weather Roundup
Issued by NWS Cleveland, OH

Home | Current Version | Previous Version | Graphics & Text | Print | Product List | Glossary On
Versions: 1 2 3 4 5 6 7 8 9 10 11 12 13 14 15 16 17 18 19 20 21 22 23 24 25 26 27 28 29 30 31 32 33 34 35 36 37 38 39 40 41 42 43 44 45 46 47 48 49 50
000
ASUS41 KCLE 242010
RWRCLE
OHIO REGIONAL WEATHER ROUNDUP
NATIONAL WEATHER SERVICE CLEVELAND, OH
400 PM EDT MON JUL 24 2017

NOTE: "FAIR" INDICATES FEW OR NO CLOUDS BELOW 12,000 FEET WITH NO
SIGNIFICANT WEATHER AND/OR OBSTRUCTIONS TO VISIBILITY.

OHZ001>008-015>018-024>027-034-035-043-044-242100-
   NORTHWEST OHIO

CITY           SKY/WX    TMP DP  RH WIND       PRES   REMARKS
DEFIANCE       CLOUDY   N/A N/A N/A VRB6      30.03R
FINDLAY        CLOUDY    74  57  55 N12       30.00R
TOLEDO EXPRESS CLOUDY    69  58  67 N12       30.02R
TOLEDO EXEC    CLOUDY    71  58  63 N9        30.02R
LIMA           CLOUDY    72  61  68 N8        30.01R
$$

OHZ009>014-019>023-028>033-038-089-242100-
   NORTHEAST OHIO

CITY           SKY/WX    TMP DP  RH WIND       PRES   REMARKS
CLE-HOPKINS    CLOUDY    71  60  68 NW13      29.99R
CLE-LAKEFRONT  CLOUDY    71  59  65 NW16G23   29.95R
CUY CO. ARPT   CLOUDY    70  61  73 NW12G21   29.97R
LORAIN-ELYRIA  CLOUDY    69  55  60 N10G20    29.99R
ASHTABULA      CLOUDY    68  61  78 NW12G17   29.94R
AKRON-CANTON   PTSUNNY   75  60  59 NW12      29.95R
WOOSTER        CLOUDY    72  60  66 NW14G20   29.98R
MANSFIELD      CLOUDY    72  61  68 N12       29.99R
YOUNGSTOWN     CLOUDY    71  58  63 NW17      29.94R
$$

OHZ042-051>053-060>062-070>072-077>081-242100-
  SOUTHWEST OHIO

CITY           SKY/WX    TMP DP  RH WIND       PRES   REMARKS
CINC-COVINGTON PTSUNNY   83  67  58 N10       29.96S
CINC-LUNKEN    PTSUNNY   83  66  56 NW9       29.94S
HAMILTON       MOSUNNY   83  68  60 N6        29.96S
DAYTON         MOSUNNY   78  64  61 N14       29.99S
WRIGHT-PAT AFB MOSUNNY   80  66  62 N13       29.97S
DAYTON GENERAL MOSUNNY   81  66  60 N14       29.96S
WILMINGTON     MOSUNNY   82  68  62 NW13      29.95S
$$

OHZ036-037-039>041-045>050-054>059-063>069-073>076-082>088-242100-
  CENTRAL AND SOUTHEAST OHIO

CITY           SKY/WX    TMP DP  RH WIND       PRES   REMARKS
COLUMBUS       MOSUNNY   82  66  58 NW18G24   29.95R
OSU AIRPORT    MOSUNNY   77  66  68 N16       29.96R
BOLTON FIELD   PTSUNNY   79  66  65 N10       29.97R
RICKENBACK AFB MOSUNNY   80  66  61 NW15      29.94S
NEWARK         SUNNY     80  64  58 NW14G22   29.94R
MARION         CLOUDY    73  58  59 N14       30.00R
LANCASTER      PTSUNNY   81  68  64 NW10      29.94S
ZANESVILLE     MOSUNNY   81  66  60 NW12      29.92R
NEW PHILLY     NOT AVBL
$$




USA.gov is the U.S. government's official web portal to all federal, state and local government web resources and services.